Home > Weather > Elizabeth > Past weeks

Flag for USA Weather for the Past 2 Weeks in Elizabeth, New Jersey, USA

Now
46 °F

Light rain. Cloudy.


Feels Like: 41 °F
Forecast: 49 / 51 °F
Wind: 10 mph from Southeast

Location: Newark International Airport

Current Time: May 1, 2016 at 12:28:59 PM

Latest Report: May 1, 2016 at 11:51 AM


Visibility: 7 mi

Pressure: 30.19 "Hg

Humidity: 96%

Dew Point: 45 °F

Location of ElizabethLocation

Historic Weather in Elizabeth — Graph

°F

Elizabeth Temperature Yesterday

Maximum temperature yesterday: 62 °F (at 2:51 PM)
Minimum temperature yesterday: 44 °F (at 5:51 AM)
Average temperature yesterday: 53 °F

High & Low Weather Summary for the Past Weeks

 TemperatureHumidityPressure
High82 °F (Apr 22, 2:51 PM)100% (Apr 23, 4:51 AM)30.46 "Hg (Apr 23, 4:51 AM)
Low43 °F (Apr 17, 4:51 AM)10% (Apr 20, 3:51 PM)29.62 "Hg (Apr 26, 2:51 PM)
Average59 °F50%30.05 "Hg
* Reported Apr 16 10:51 AM — May 1 10:51 AM, Elizabeth, Weather by CustomWeather, © 2016

Note: Actual official high and low records may vary slightly from our data, if they occured in-between our weather recording intervals... More about our weather records

Advertising

Elizabeth Weather History for the Previous 24 Hours

Scroll right to see more
 ConditionsComfort  
Time TempWeatherWind HumidityBarometerVisibility
10:51 AM
Sun, May 1
47 °FLight rain. Mostly cloudy.7 mph90%30.20 "Hg8 mi
10:04 AM48 °FLight rain. Mostly cloudy.7 mph87%30.20 "Hg8 mi
9:51 AM49 °FLight rain. Mostly cloudy.6 mph80%30.21 "Hg8 mi
8:51 AM49 °FLight rain. Mostly cloudy.7 mph77%30.22 "Hg9 mi
7:51 AM50 °FLight rain. Mostly cloudy.6 mph74%30.21 "Hg9 mi
6:51 AM50 °FMostly cloudy.8 mph66%30.21 "Hg10 mi
5:51 AM50 °FMostly cloudy.5 mph63%30.19 "Hg10 mi
4:51 AM51 °FOvercast.3 mph63%30.19 "Hg10 mi
3:51 AM51 °FMostly cloudy.No wind61%30.20 "Hg10 mi
2:51 AM51 °FMostly cloudy.6 mph63%30.19 "Hg10 mi
1:51 AM51 °FMostly cloudy.5 mph66%30.21 "Hg10 mi
12:51 AM51 °FMostly cloudy.7 mph63%30.23 "Hg10 mi
11:51 PM
Sat, Apr 30
51 °FMostly cloudy.6 mph63%30.24 "Hg10 mi
10:51 PM52 °FPassing clouds.5 mph61%30.24 "Hg10 mi
9:51 PM53 °FPassing clouds.6 mph59%30.23 "Hg10 mi
8:51 PM55 °FScattered clouds.7 mph47%30.23 "Hg10 mi
7:51 PM56 °FScattered clouds.7 mph42%30.23 "Hg10 mi
6:51 PM58 °FScattered clouds.10 mph33%30.23 "Hg10 mi
5:51 PM60 °FPartly sunny.8 mph24%30.21 "Hg10 mi
4:51 PM61 °FBroken clouds.14 mph29%30.21 "Hg10 mi
3:51 PM62 °FBroken clouds.7 mph32%30.19 "Hg10 mi
2:51 PM62 °FBroken clouds.7 mph35%30.21 "Hg10 mi
1:51 PM61 °FBroken clouds.6 mph42%30.20 "Hg10 mi
12:51 PM60 °FBroken clouds.5 mph44%30.19 "Hg10 mi
Weather by CustomWeather, © 2016

See weather overviewHow to use our weather pages